STARLINK-34737 (64933 NORAD) Tracking and Keplerian Element Data

This shows tracking and keplerian element data for the satellite.

Feedback or suggestion? Click here.




ElementValue
Catalog64933
NameSTARLINK-34737
Epoch Orbit2338
Epoch Day354.13423619
Epoch Year2025
RAAN215.6418
Inclination97.6023
Eccentricity0.0002429
Argument of Perigee83.7377
Mean Anonmoly276.4126
Mean Motion15.05652473
Decay Rate3.297E-05
L11 64933U 25158B 25354.13423619 .00003297 00000+0 23259-3 0 9998
L22 64933 97.6023 215.6418 0002429 83.7377 276.4126 15.05652473 23385



Live tracking and technical data element details for STARLINK-34737 (NORAD 64933). STARLINK-34737 can be tracked NOW for your location showing map with azimuth and elevation plus other details from your city location.







IsCatalogInMostPopularTable: catalog: 64933, numindb: 3
Update: records affected: 1



GetName: 64933 STARLINK-34737

Hit Count: updated at: Sun, 08 Feb 2026 08:43:36 GMT